Location: Brunembert
(50.7122°N, 1.8935°E)
Time: 09:08:52
(UTC+00:00)

ATLAS 5 CENTAUR R/B - Pass Details

Date: 22 April 2021
Orbit: 516 x 1141 km, 63.3° (Epoch: 02 May)

Event Time Altitude Azimuth Distance (km) Brightness Sun altitude
Rises 21:30:52 0° 304° (NW) 2,938 6.3 -19.8°
Reaches altitude 10° 21:33:34 10° 322° (NW) 2,126 5.5 -20.1°
Maximum altitude 21:37:13 21° 11° (N) 1,655 4.2 -20.4°
Drops below altitude 10° 21:41:20 10° 59° (ENE) 2,431 4.6 -20.8°
Sets 21:44:40 0° 75° (ENE) 3,498 5.2 -21.1°
